Back to catalog

FENGYUN 1C DEB

AliveSSO
NORAD 37012·DEBRIS·🇨🇳 China

Launched May 10, 1999 from Taiyuan Satellite Launch Center

Loading…

Next Passes (next 24 hours)

TLE

AgingSource: Space-Track

Epoch: Sep 7, 2026, 07:57 UTC

1 37012U 99025ECU 26250.33125386  .00001410  00000-0  84515-3 0  9996
2 37012  98.5368  96.2277 0189652 307.1991  51.1994 13.99962410627152

Track FENGYUN 1C DEB in real time with AllMySat

Download on the App Store